This demonstration page uses our WeatherBlox Daily Observations layout. Learn more.

Left ArrowRight Arrow

Hourly Observations for October 26, 2015

Temp ( °F °C ) Dew Point ( °F °C ) Humidity (%) Winds ( mph kmh ) Pressure ( in mb ) Visibility ( mi km ) Precip ( " mm )
12:53 am 00:53 Clear 48 8.9 37 2.8 66 66 NE 8 13 30.36 1028 10 16 0.00 0.00
1:53 am 01:53 Clear 48 8.9 36 2.2 63 63 NE 9 15 30.35 1028 10 16 0.00 0.00
2:53 am 02:53 Clear 42 5.6 36 2.2 79 79 Calm 30.35 1028 10 16 0.00 0.00
3:53 am 03:53 Clear 39 3.9 34 1.1 82 82 Calm 30.37 1029 10 16 0.00 0.00
4:53 am 04:53 Clear 35 1.7 34 1.1 96 96 Calm 30.37 1028 10 16 0.00 0.00
5:53 am 05:53 Clear 36 2.2 34 1.1 93 93 NE 5 7 30.39 1029 10 16 0.00 0.00
6:53 am 06:53 Clear 38 3.3 34 1.1 86 86 ENE 3 6 30.38 1029 10 16 0.00 0.00
7:53 am 07:53 Clear 35 1.7 33 0.6 93 93 ENE 3 6 30.39 1029 10 16 0.00 0.00
8:53 am 08:53 Sunny 41 5 37 2.8 86 86 NE 5 7 30.40 1030 10 16 0.00 0.00
9:53 am 09:53 Sunny 48 8.9 39 3.9 71 71 E 5 7 30.40 1030 10 16 0.00 0.00
10:53 am 10:53 Sunny 54 12.2 38 3.3 55 55 E 14 22 30.41 1030 10 16 0.00 0.00
11:53 am 11:53 Sunny with Light Rain 58 14.4 36 2.2 44 44 E 17 28 30.40 1029 10 16 0.00 0.03
12:53 pm 12:53 Sunny with Light Rain 61 16.1 35 1.7 38 38 ENE 18 30 30.37 1028 10 16 0.00 0.03
1:53 pm 13:53 Sunny 63 17.2 35 1.7 35 35 ENE 13 20 30.33 1027 10 16 0.00 0.03
2:53 pm 14:53 Sunny 64 17.8 35 1.7 34 34 E 10 17 30.30 1026 10 16 0.00 0.00
3:53 pm 15:53 Sunny 66 18.9 32 0 28 28 E 10 17 30.29 1026 10 16 0.00 0.00
4:53 pm 16:53 Sunny 64 17.8 33 0.6 32 32 ENE 10 17 30.28 1026 10 16 0.00 0.00
5:53 pm 17:53 Sunny 62 16.7 34 1.1 35 35 ENE 10 17 30.29 1026 10 16 0.00 0.00
6:53 pm 18:53 Clear 57 13.9 34 1.1 42 42 ENE 7 11 30.31 1026 10 16 0.00 0.00
7:53 pm 19:53 Partly Cloudy 55 12.8 35 1.7 47 47 NE 8 13 30.32 1027 10 16 0.00 0.00
8:53 pm 20:53 Mostly Cloudy 55 12.8 35 1.7 47 47 ENE 8 13 30.32 1027 10 16 0.00 0.00
9:53 pm 21:53 Cloudy 56 13.3 35 1.7 46 46 ENE 9 15 30.32 1027 10 16 0.00 0.00
10:53 pm 22:53 Cloudy 56 13.3 36 2.2 47 47 E 7 11 30.32 1027 10 16 0.00 0.00
11:53 pm 23:53 Cloudy 56 13.3 35 1.7 46 46 E 8 13 30.31 1026 10 16 0.00 0.00

Powered by AerisWeather